owner,sensor,date,latitude,longitude,vertical_datum,wind_speed,wind_to_direction,wind_speed_of_gust,qcFlag 
TCOON,ioos:station:TCOON:005:1,2011-09-01T00:00:00Z,27.6346,-97.2370,0.0,5.5,112.0,6.6,'11111222,11111222,11111222' 
TCOON,ioos:station:TCOON:005:1,2011-09-01T01:00:00Z,27.6346,-97.2370,0.0,5.0,110.0,6.0,'11111222,11111222,11111222' 
TCOON,ioos:station:TCOON:005:1,2011-09-01T02:00:00Z,27.6346,-97.2370,0.0,5.6,108.0,7.1,'11111222,11111222,11111222' 
TCOON,ioos:station:TCOON:005:1,2011-09-01T03:00:00Z,27.6346,-97.2370,0.0,5.4,109.0,7.1,'11111222,11111222,11111222' 
TCOON,ioos:station:TCOON:005:1,2011-09-01T04:00:00Z,27.6346,-97.2370,0.0,6.5,102.0,7.5,'11111222,11111222,11111222' 
TCOON,ioos:station:TCOON:005:1,2011-09-01T05:00:00Z,27.6346,-97.2370,0.0,7.0,104.0,7.9,'11111222,11111222,11111222' 
TCOON,ioos:station:TCOON:005:1,2011-09-01T06:00:00Z,27.6346,-97.2370,0.0,6.7,102.0,7.6,'11111222,11111222,11111222' 
TCOON,ioos:station:TCOON:005:1,2011-09-01T07:00:00Z,27.6346,-97.2370,0.0,5.5,122.0,6.4,'11111222,11111222,11111222' 
TCOON,ioos:station:TCOON:005:1,2011-09-01T08:00:00Z,27.6346,-97.2370,0.0,5.8,116.0,6.6,'11111222,11111222,11111222' 
TCOON,ioos:station:TCOON:005:1,2011-09-01T09:00:00Z,27.6346,-97.2370,0.0,3.4,125.0,4.2,'11111222,11111222,11111222' 
TCOON,ioos:station:TCOON:005:1,2011-09-01T10:00:00Z,27.6346,-97.2370,0.0,2.2,121.0,3.1,'11111222,11111222,11111222' 
TCOON,ioos:station:TCOON:005:1,2011-09-01T11:00:00Z,27.6346,-97.2370,0.0,1.3,117.0,1.6,'11111222,11111222,11111222' 
TCOON,ioos:station:TCOON:005:1,2011-09-01T12:00:00Z,27.6346,-97.2370,0.0,1.5,47.0,1.9,'11111222,11111222,11111222' 
TCOON,ioos:station:TCOON:005:1,2011-09-01T13:00:00Z,27.6346,-97.2370,0.0,1.6,30.0,2.1,'11111222,11111222,11111222' 
TCOON,ioos:station:TCOON:005:1,2011-09-01T14:00:00Z,27.6346,-97.2370,0.0,2.3,16.0,3.7,'11111222,11111222,11111222' 
TCOON,ioos:station:TCOON:005:1,2011-09-01T15:00:00Z,27.6346,-97.2370,0.0,4.5,28.0,5.3,'11111222,11111222,11111222' 
TCOON,ioos:station:TCOON:005:1,2011-09-01T16:00:00Z,27.6346,-97.2370,0.0,5.2,33.0,6.2,'11111222,11111222,11111222' 
TCOON,ioos:station:TCOON:005:1,2011-09-01T17:00:00Z,27.6346,-97.2370,0.0,7.0,72.0,8.4,'11111222,11111222,11111222' 
TCOON,ioos:station:TCOON:005:1,2011-09-01T18:00:00Z,27.6346,-97.2370,0.0,5.4,73.0,6.9,'11111222,11111222,11111222' 
TCOON,ioos:station:TCOON:005:1,2011-09-01T19:00:00Z,27.6346,-97.2370,0.0,6.1,87.0,7.9,'11111222,11111222,11111222' 
TCOON,ioos:station:TCOON:005:1,2011-09-01T20:00:00Z,27.6346,-97.2370,0.0,5.9,76.0,7.2,'11111222,11111222,11111222' 
TCOON,ioos:station:TCOON:005:1,2011-09-01T21:00:00Z,27.6346,-97.2370,0.0,6.4,101.0,8.3,'11111222,11111222,11111222' 
TCOON,ioos:station:TCOON:005:1,2011-09-01T22:00:00Z,27.6346,-97.2370,0.0,6.3,103.0,8.9,'11111222,11111222,11111222' 
TCOON,ioos:station:TCOON:005:1,2011-09-01T23:00:00Z,27.6346,-97.2370,0.0,7.1,113.0,8.4,'11111222,11111222,11111222' 
TCOON,ioos:station:TCOON:005:1,2011-09-02T00:00:00Z,27.6346,-97.2370,0.0,5.8,100.0,6.9,'11111222,11111222,11111222' 
TCOON,ioos:station:TCOON:005:1,2011-09-02T01:00:00Z,27.6346,-97.2370,0.0,5.6,95.0,6.4,'11111222,11111222,11111222' 
TCOON,ioos:station:TCOON:005:1,2011-09-02T02:00:00Z,27.6346,-97.2370,0.0,5.9,83.0,6.6,'11111222,11111222,11111222' 
TCOON,ioos:station:TCOON:005:1,2011-09-02T03:00:00Z,27.6346,-97.2370,0.0,4.4,98.0,5.2,'11111222,11111222,11111222' 
TCOON,ioos:station:TCOON:005:1,2011-09-02T04:00:00Z,27.6346,-97.2370,0.0,4.3,96.0,5.8,'11111222,11111222,11111222' 
TCOON,ioos:station:TCOON:005:1,2011-09-02T05:00:00Z,27.6346,-97.2370,0.0,3.8,91.0,4.8,'11111222,11111222,11111222' 
TCOON,ioos:station:TCOON:005:1,2011-09-02T06:00:00Z,27.6346,-97.2370,0.0,3.1,82.0,3.6,'11111222,11111222,11111222' 
TCOON,ioos:station:TCOON:005:1,2011-09-02T07:00:00Z,27.6346,-97.2370,0.0,2.8,75.0,3.2,'11111222,11111222,11111222' 
TCOON,ioos:station:TCOON:005:1,2011-09-02T08:00:00Z,27.6346,-97.2370,0.0,2.4,53.0,2.8,'11111222,11111222,11111222' 
TCOON,ioos:station:TCOON:005:1,2011-09-02T09:00:00Z,27.6346,-97.2370,0.0,1.6,20.0,2.2,'11111222,11111222,11111222' 
TCOON,ioos:station:TCOON:005:1,2011-09-02T10:00:00Z,27.6346,-97.2370,0.0,1.7,51.0,3.5,'11111222,11111222,11111222' 
TCOON,ioos:station:TCOON:005:1,2011-09-02T11:00:00Z,27.6346,-97.2370,0.0,4.2,7.0,5.4,'11111222,11111222,11111222' 
TCOON,ioos:station:TCOON:005:1,2011-09-02T12:00:00Z,27.6346,-97.2370,0.0,4.8,9.0,6.1,'11111222,11111222,11111222' 
TCOON,ioos:station:TCOON:005:1,2011-09-02T13:00:00Z,27.6346,-97.2370,0.0,5.6,5.0,6.6,'11111222,11111222,11111222' 
TCOON,ioos:station:TCOON:005:1,2011-09-02T14:00:00Z,27.6346,-97.2370,0.0,5.4,11.0,7.1,'11111222,11111222,11111222' 
TCOON,ioos:station:TCOON:005:1,2011-09-02T15:00:00Z,27.6346,-97.2370,0.0,5.2,22.0,6.7,'11111222,11111222,11111222' 
TCOON,ioos:station:TCOON:005:1,2011-09-02T16:00:00Z,27.6346,-97.2370,0.0,5.8,28.0,6.8,'11111222,11111222,11111222' 
TCOON,ioos:station:TCOON:005:1,2011-09-02T17:00:00Z,27.6346,-97.2370,0.0,4.8,33.0,6.7,'11111222,11111222,11111222' 
TCOON,ioos:station:TCOON:005:1,2011-09-02T18:00:00Z,27.6346,-97.2370,0.0,6.2,80.0,7.7,'11111222,11111222,11111222' 
TCOON,ioos:station:TCOON:005:1,2011-09-02T19:00:00Z,27.6346,-97.2370,0.0,6.3,90.0,7.6,'11111222,11111222,11111222' 
TCOON,ioos:station:TCOON:005:1,2011-09-02T20:00:00Z,27.6346,-97.2370,0.0,5.8,103.0,6.8,'11111222,11111222,11111222' 
TCOON,ioos:station:TCOON:005:1,2011-09-02T21:00:00Z,27.6346,-97.2370,0.0,6.6,95.0,8.3,'11111222,11111222,11111222' 
TCOON,ioos:station:TCOON:005:1,2011-09-02T22:00:00Z,27.6346,-97.2370,0.0,9.5,108.0,10.6,'11111222,11111222,11111222' 
TCOON,ioos:station:TCOON:005:1,2011-09-02T23:00:00Z,27.6346,-97.2370,0.0,9.6,96.0,11.0,'11111222,11111222,11111222' 
TCOON,ioos:station:TCOON:005:1,2011-09-03T00:00:00Z,27.6346,-97.2370,0.0,10.4,91.0,12.0,'11111222,11111222,11111222' 
TCOON,ioos:station:TCOON:005:1,2011-09-03T01:00:00Z,27.6346,-97.2370,0.0,9.9,85.0,11.2,'11111222,11111222,11111222' 
TCOON,ioos:station:TCOON:005:1,2011-09-03T02:00:00Z,27.6346,-97.2370,0.0,7.9,86.0,9.5,'11111222,11111222,11111222' 
TCOON,ioos:station:TCOON:005:1,2011-09-03T03:00:00Z,27.6346,-97.2370,0.0,7.6,95.0,9.6,'11111222,11111222,11111222' 
TCOON,ioos:station:TCOON:005:1,2011-09-03T04:00:00Z,27.6346,-97.2370,0.0,6.0,103.0,7.5,'11111222,11111222,11111222' 
TCOON,ioos:station:TCOON:005:1,2011-09-03T05:00:00Z,27.6346,-97.2370,0.0,6.5,88.0,7.8,'11111222,11111222,11111222' 
TCOON,ioos:station:TCOON:005:1,2011-09-03T06:00:00Z,27.6346,-97.2370,0.0,5.3,69.0,7.7,'11111222,11111222,11111222' 
TCOON,ioos:station:TCOON:005:1,2011-09-03T07:00:00Z,27.6346,-97.2370,0.0,5.0,76.0,5.6,'11111222,11111222,11111222' 
TCOON,ioos:station:TCOON:005:1,2011-09-03T08:00:00Z,27.6346,-97.2370,0.0,3.9,79.0,4.9,'11111222,11111222,11111222' 
TCOON,ioos:station:TCOON:005:1,2011-09-03T09:00:00Z,27.6346,-97.2370,0.0,3.3,61.0,4.1,'11111222,11111222,11111222' 
TCOON,ioos:station:TCOON:005:1,2011-09-03T10:00:00Z,27.6346,-97.2370,0.0,1.2,4.0,1.3,'11111222,11111222,11111222' 
TCOON,ioos:station:TCOON:005:1,2011-09-03T11:00:00Z,27.6346,-97.2370,0.0,3.7,1.0,4.8,'11111222,11111222,11111222' 
TCOON,ioos:station:TCOON:005:1,2011-09-03T12:00:00Z,27.6346,-97.2370,0.0,4.4,2.0,6.0,'11111222,11111222,11111222' 
TCOON,ioos:station:TCOON:005:1,2011-09-03T13:00:00Z,27.6346,-97.2370,0.0,4.9,7.0,6.0,'11111222,11111222,11111222' 
TCOON,ioos:station:TCOON:005:1,2011-09-03T14:00:00Z,27.6346,-97.2370,0.0,4.3,329.0,5.0,'11111222,11111222,11111222' 
TCOON,ioos:station:TCOON:005:1,2011-09-03T15:00:00Z,27.6346,-97.2370,0.0,4.3,321.0,5.9,'11111222,11111222,11111222' 
TCOON,ioos:station:TCOON:005:1,2011-09-03T16:00:00Z,27.6346,-97.2370,0.0,5.4,336.0,6.2,'11111222,11111222,11111222' 
TCOON,ioos:station:TCOON:005:1,2011-09-03T17:00:00Z,27.6346,-97.2370,0.0,5.7,326.0,8.3,'11111222,11111222,11111222' 
TCOON,ioos:station:TCOON:005:1,2011-09-03T18:00:00Z,27.6346,-97.2370,0.0,7.2,331.0,9.2,'11111222,11111222,11111222' 
TCOON,ioos:station:TCOON:005:1,2011-09-03T19:00:00Z,27.6346,-97.2370,0.0,6.7,327.0,7.6,'11111222,11111222,11111222' 
TCOON,ioos:station:TCOON:005:1,2011-09-03T20:00:00Z,27.6346,-97.2370,0.0,4.9,336.0,6.3,'11111222,11111222,11111222' 
TCOON,ioos:station:TCOON:005:1,2011-09-03T21:00:00Z,27.6346,-97.2370,0.0,3.4,351.0,4.2,'11111222,11111222,11111222' 
TCOON,ioos:station:TCOON:005:1,2011-09-03T22:00:00Z,27.6346,-97.2370,0.0,5.3,108.0,6.5,'11111222,11111222,11111222' 
TCOON,ioos:station:TCOON:005:1,2011-09-03T23:00:00Z,27.6346,-97.2370,0.0,4.5,147.0,6.6,'11111222,11111222,11111222' 
TCOON,ioos:station:TCOON:005:1,2011-09-04T00:00:00Z,27.6346,-97.2370,0.0,4.4,159.0,5.6,'11111222,11111222,11111222' 
TCOON,ioos:station:TCOON:005:1,2011-09-04T01:00:00Z,27.6346,-97.2370,0.0,2.6,171.0,3.9,'11111222,11111222,11111222' 
TCOON,ioos:station:TCOON:005:1,2011-09-04T02:00:00Z,27.6346,-97.2370,0.0,3.0,207.0,3.6,'11111222,11111222,11111222' 
TCOON,ioos:station:TCOON:005:1,2011-09-04T03:00:00Z,27.6346,-97.2370,0.0,3.9,218.0,4.8,'11111222,11111222,11111222' 
TCOON,ioos:station:TCOON:005:1,2011-09-04T04:00:00Z,27.6346,-97.2370,0.0,1.0,207.0,1.5,'11111222,11111222,11111222' 
TCOON,ioos:station:TCOON:005:1,2011-09-04T05:00:00Z,27.6346,-97.2370,0.0,5.8,67.0,7.5,'11111222,11111222,11111222' 
TCOON,ioos:station:TCOON:005:1,2011-09-04T06:00:00Z,27.6346,-97.2370,0.0,4.9,113.0,5.4,'11111222,11111222,11111222' 
TCOON,ioos:station:TCOON:005:1,2011-09-04T07:00:00Z,27.6346,-97.2370,0.0,2.7,143.0,4.3,'11111222,11111222,11111222' 
TCOON,ioos:station:TCOON:005:1,2011-09-04T08:00:00Z,27.6346,-97.2370,0.0,1.6,177.0,2.1,'11111222,11111222,11111222' 
TCOON,ioos:station:TCOON:005:1,2011-09-04T09:00:00Z,27.6346,-97.2370,0.0,1.5,183.0,2.0,'11111222,11111222,11111222' 
TCOON,ioos:station:TCOON:005:1,2011-09-04T10:00:00Z,27.6346,-97.2370,0.0,1.7,210.0,2.6,'11111222,11111222,11111222' 
TCOON,ioos:station:TCOON:005:1,2011-09-04T11:00:00Z,27.6346,-97.2370,0.0,1.8,295.0,2.4,'11111222,11111222,11111222' 
TCOON,ioos:station:TCOON:005:1,2011-09-04T12:00:00Z,27.6346,-97.2370,0.0,2.4,301.0,2.7,'11111222,11111222,11111222' 
TCOON,ioos:station:TCOON:005:1,2011-09-04T13:00:00Z,27.6346,-97.2370,0.0,5.8,339.0,7.1,'11111222,11111222,11111222' 
TCOON,ioos:station:TCOON:005:1,2011-09-04T14:00:00Z,27.6346,-97.2370,0.0,8.7,344.0,10.4,'11111222,11111222,11111222' 
TCOON,ioos:station:TCOON:005:1,2011-09-04T15:00:00Z,27.6346,-97.2370,0.0,9.7,333.0,10.7,'11111222,11111222,11111222' 
TCOON,ioos:station:TCOON:005:1,2011-09-04T16:00:00Z,27.6346,-97.2370,0.0,9.1,346.0,10.3,'11111222,11111222,11111222' 
TCOON,ioos:station:TCOON:005:1,2011-09-04T17:00:00Z,27.6346,-97.2370,0.0,7.9,330.0,9.7,'11111222,11111222,11111222' 
TCOON,ioos:station:TCOON:005:1,2011-09-04T18:00:00Z,27.6346,-97.2370,0.0,7.9,337.0,10.4,'11111222,11111222,11111222' 
TCOON,ioos:station:TCOON:005:1,2011-09-04T19:00:00Z,27.6346,-97.2370,0.0,5.2,350.0,6.6,'11111222,11111222,11111222' 
TCOON,ioos:station:TCOON:005:1,2011-09-04T20:00:00Z,27.6346,-97.2370,0.0,7.7,348.0,9.2,'11111222,11111222,11111222' 
TCOON,ioos:station:TCOON:005:1,2011-09-04T21:00:00Z,27.6346,-97.2370,0.0,7.8,339.0,8.8,'11111222,11111222,11111222' 
TCOON,ioos:station:TCOON:005:1,2011-09-04T22:00:00Z,27.6346,-97.2370,0.0,4.1,360.0,6.2,'11111222,11144222,11111222' 
TCOON,ioos:station:TCOON:005:1,2011-09-04T23:00:00Z,27.6346,-97.2370,0.0,7.6,3.0,8.9,'11111222,11111222,11111222' 
TCOON,ioos:station:TCOON:005:1,2011-09-05T00:00:00Z,27.6346,-97.2370,0.0,8.6,72.0,10.6,'11111222,11111222,11111222' 
TCOON,ioos:station:TCOON:005:1,2011-09-05T01:00:00Z,27.6346,-97.2370,0.0,7.9,75.0,8.9,'11111222,11111222,11111222' 
TCOON,ioos:station:TCOON:005:1,2011-09-05T02:00:00Z,27.6346,-97.2370,0.0,7.4,81.0,9.0,'11111222,11111222,11111222' 
TCOON,ioos:station:TCOON:005:1,2011-09-05T03:00:00Z,27.6346,-97.2370,0.0,2.4,105.0,3.3,'11111222,11111222,11111222' 
TCOON,ioos:station:TCOON:005:1,2011-09-05T04:00:00Z,27.6346,-97.2370,0.0,1.8,128.0,2.0,'11111222,11111222,11111222' 
TCOON,ioos:station:TCOON:005:1,2011-09-05T05:00:00Z,27.6346,-97.2370,0.0,1.2,204.0,1.4,'11111222,11111222,11111222' 
TCOON,ioos:station:TCOON:005:1,2011-09-05T06:00:00Z,27.6346,-97.2370,0.0,1.0,225.0,1.3,'11111222,11111222,11111222' 
TCOON,ioos:station:TCOON:005:1,2011-09-05T07:00:00Z,27.6346,-97.2370,0.0,3.2,276.0,3.6,'11111222,11111222,11111222' 
TCOON,ioos:station:TCOON:005:1,2011-09-05T08:00:00Z,27.6346,-97.2370,0.0,2.7,258.0,3.6,'11111222,11111222,11111222' 
TCOON,ioos:station:TCOON:005:1,2011-09-05T09:00:00Z,27.6346,-97.2370,0.0,1.7,290.0,2.1,'11111222,11111222,11111222' 
TCOON,ioos:station:TCOON:005:1,2011-09-05T10:00:00Z,27.6346,-97.2370,0.0,6.9,5.0,10.1,'11111222,11111222,11111222' 
TCOON,ioos:station:TCOON:005:1,2011-09-05T11:00:00Z,27.6346,-97.2370,0.0,7.2,15.0,9.9,'11111222,11111222,11111222' 
TCOON,ioos:station:TCOON:005:1,2011-09-05T12:00:00Z,27.6346,-97.2370,0.0,6.8,18.0,9.9,'11111222,11111222,11111222' 
TCOON,ioos:station:TCOON:005:1,2011-09-05T13:00:00Z,27.6346,-97.2370,0.0,7.9,5.0,9.8,'11111222,11111222,11111222' 
TCOON,ioos:station:TCOON:005:1,2011-09-05T14:00:00Z,27.6346,-97.2370,0.0,8.7,11.0,12.1,'11111222,11111222,11111222' 
TCOON,ioos:station:TCOON:005:1,2011-09-05T15:00:00Z,27.6346,-97.2370,0.0,8.6,14.0,10.6,'11111222,11111222,11111222' 
TCOON,ioos:station:TCOON:005:1,2011-09-05T16:00:00Z,27.6346,-97.2370,0.0,7.4,5.0,9.3,'11111222,11111222,11111222' 
TCOON,ioos:station:TCOON:005:1,2011-09-05T17:00:00Z,27.6346,-97.2370,0.0,6.5,12.0,8.2,'11111222,11111222,11111222' 
TCOON,ioos:station:TCOON:005:1,2011-09-05T18:00:00Z,27.6346,-97.2370,0.0,6.3,360.0,7.7,'11111222,11144222,11111222' 
TCOON,ioos:station:TCOON:005:1,2011-09-05T19:00:00Z,27.6346,-97.2370,0.0,7.6,341.0,9.4,'11111222,11111222,11111222' 
TCOON,ioos:station:TCOON:005:1,2011-09-05T20:00:00Z,27.6346,-97.2370,0.0,5.5,359.0,6.8,'11111222,11111222,11111222' 
TCOON,ioos:station:TCOON:005:1,2011-09-05T21:00:00Z,27.6346,-97.2370,0.0,3.9,14.0,4.8,'11111222,11111222,11111222' 
TCOON,ioos:station:TCOON:005:1,2011-09-05T22:00:00Z,27.6346,-97.2370,0.0,6.2,16.0,7.8,'11111222,11111222,11111222' 
TCOON,ioos:station:TCOON:005:1,2011-09-05T23:00:00Z,27.6346,-97.2370,0.0,5.9,27.0,7.8,'11111222,11111222,11111222' 
TCOON,ioos:station:TCOON:005:1,2011-09-06T00:00:00Z,27.6346,-97.2370,0.0,5.1,25.0,6.8,'11111222,11111222,11111222' 
TCOON,ioos:station:TCOON:005:1,2011-09-06T01:00:00Z,27.6346,-97.2370,0.0,4.4,16.0,5.7,'11111222,11111222,11111222' 
TCOON,ioos:station:TCOON:005:1,2011-09-06T02:00:00Z,27.6346,-97.2370,0.0,7.3,8.0,9.5,'11111222,11111222,11111222' 
TCOON,ioos:station:TCOON:005:1,2011-09-06T03:00:00Z,27.6346,-97.2370,0.0,8.7,5.0,10.7,'11111222,11111222,11111222' 
TCOON,ioos:station:TCOON:005:1,2011-09-06T04:00:00Z,27.6346,-97.2370,0.0,7.8,3.0,9.3,'11111222,11111222,11111222' 
TCOON,ioos:station:TCOON:005:1,2011-09-06T05:00:00Z,27.6346,-97.2370,0.0,7.1,13.0,9.7,'11111222,11111222,11111222' 
TCOON,ioos:station:TCOON:005:1,2011-09-06T06:00:00Z,27.6346,-97.2370,0.0,7.4,19.0,10.0,'11111222,11111222,11111222' 
TCOON,ioos:station:TCOON:005:1,2011-09-06T07:00:00Z,27.6346,-97.2370,0.0,7.2,29.0,9.0,'11111222,11111222,11111222' 
TCOON,ioos:station:TCOON:005:1,2011-09-06T08:00:00Z,27.6346,-97.2370,0.0,6.5,20.0,8.1,'11111222,11111222,11111222' 
TCOON,ioos:station:TCOON:005:1,2011-09-06T09:00:00Z,27.6346,-97.2370,0.0,5.5,22.0,7.2,'11111222,11111222,11111222' 
TCOON,ioos:station:TCOON:005:1,2011-09-06T10:00:00Z,27.6346,-97.2370,0.0,5.3,20.0,6.9,'11111222,11111222,11111222' 
TCOON,ioos:station:TCOON:005:1,2011-09-06T11:00:00Z,27.6346,-97.2370,0.0,5.1,24.0,6.7,'11111222,11111222,11111222' 
TCOON,ioos:station:TCOON:005:1,2011-09-06T12:00:00Z,27.6346,-97.2370,0.0,4.8,18.0,6.0,'11111222,11111222,11111222' 
TCOON,ioos:station:TCOON:005:1,2011-09-06T13:00:00Z,27.6346,-97.2370,0.0,4.6,4.0,5.4,'11111222,11111222,11111222' 
TCOON,ioos:station:TCOON:005:1,2011-09-06T14:00:00Z,27.6346,-97.2370,0.0,5.2,4.0,6.3,'11111222,11111222,11111222' 
TCOON,ioos:station:TCOON:005:1,2011-09-06T15:00:00Z,27.6346,-97.2370,0.0,5.6,14.0,6.8,'11111222,11111222,11111222' 
TCOON,ioos:station:TCOON:005:1,2011-09-06T16:00:00Z,27.6346,-97.2370,0.0,5.1,358.0,5.9,'11111222,11111222,11111222' 
TCOON,ioos:station:TCOON:005:1,2011-09-06T17:00:00Z,27.6346,-97.2370,0.0,4.5,28.0,5.7,'11111222,11111222,11111222' 
TCOON,ioos:station:TCOON:005:1,2011-09-06T18:00:00Z,27.6346,-97.2370,0.0,4.9,53.0,6.3,'11111222,11111222,11111222' 
TCOON,ioos:station:TCOON:005:1,2011-09-06T19:00:00Z,27.6346,-97.2370,0.0,5.2,72.0,7.7,'11111222,11111222,11111222' 
TCOON,ioos:station:TCOON:005:1,2011-09-06T20:00:00Z,27.6346,-97.2370,0.0,4.9,94.0,7.0,'11111222,11111222,11111222' 
TCOON,ioos:station:TCOON:005:1,2011-09-06T21:00:00Z,27.6346,-97.2370,0.0,4.1,104.0,6.6,'11111222,11111222,11111222' 
TCOON,ioos:station:TCOON:005:1,2011-09-06T22:00:00Z,27.6346,-97.2370,0.0,5.2,112.0,6.7,'11111222,11111222,11111222' 
TCOON,ioos:station:TCOON:005:1,2011-09-06T23:00:00Z,27.6346,-97.2370,0.0,5.5,119.0,6.4,'11111222,11111222,11111222' 
TCOON,ioos:station:TCOON:005:1,2011-09-07T00:00:00Z,27.6346,-97.2370,0.0,4.0,126.0,5.9,'11111222,11111222,11111222' 
TCOON,ioos:station:TCOON:005:1,2011-09-07T01:00:00Z,27.6346,-97.2370,0.0,4.9,121.0,5.6,'11111222,11111222,11111222' 
TCOON,ioos:station:TCOON:005:1,2011-09-07T02:00:00Z,27.6346,-97.2370,0.0,3.3,134.0,5.2,'11111222,11111222,11111222' 
TCOON,ioos:station:TCOON:005:1,2011-09-07T03:00:00Z,27.6346,-97.2370,0.0,3.2,137.0,4.6,'11111222,11111222,11111222' 
TCOON,ioos:station:TCOON:005:1,2011-09-07T04:00:00Z,27.6346,-97.2370,0.0,3.1,135.0,4.4,'11111222,11111222,11111222' 
TCOON,ioos:station:TCOON:005:1,2011-09-07T05:00:00Z,27.6346,-97.2370,0.0,2.3,131.0,3.1,'11111222,11111222,11111222' 
TCOON,ioos:station:TCOON:005:1,2011-09-07T06:00:00Z,27.6346,-97.2370,0.0,2.2,132.0,3.1,'11111222,11111222,11111222' 
TCOON,ioos:station:TCOON:005:1,2011-09-07T07:00:00Z,27.6346,-97.2370,0.0,2.0,126.0,2.3,'11111222,11111222,11111222' 
TCOON,ioos:station:TCOON:005:1,2011-09-07T08:00:00Z,27.6346,-97.2370,0.0,1.2,149.0,1.6,'11111222,11111222,11111222' 
TCOON,ioos:station:TCOON:005:1,2011-09-07T09:00:00Z,27.6346,-97.2370,0.0,1.0,176.0,1.5,'11111222,11111222,11111222' 
TCOON,ioos:station:TCOON:005:1,2011-09-07T10:00:00Z,27.6346,-97.2370,0.0,1.7,314.0,2.2,'11111222,11111222,11111222' 
TCOON,ioos:station:TCOON:005:1,2011-09-07T11:00:00Z,27.6346,-97.2370,0.0,1.4,304.0,1.7,'11111222,11111222,11111222' 
TCOON,ioos:station:TCOON:005:1,2011-09-07T12:00:00Z,27.6346,-97.2370,0.0,1.9,323.0,2.1,'11111222,11111222,11111222' 
TCOON,ioos:station:TCOON:005:1,2011-09-07T13:00:00Z,27.6346,-97.2370,0.0,2.8,327.0,3.1,'11111222,11111222,11111222' 
TCOON,ioos:station:TCOON:005:1,2011-09-07T14:00:00Z,27.6346,-97.2370,0.0,2.9,345.0,3.7,'11111222,11111222,11111222' 
TCOON,ioos:station:TCOON:005:1,2011-09-07T15:00:00Z,27.6346,-97.2370,0.0,3.3,22.0,4.7,'11111222,11111222,11111222' 
TCOON,ioos:station:TCOON:005:1,2011-09-07T16:00:00Z,27.6346,-97.2370,0.0,3.2,29.0,4.2,'11111222,11111222,11111222' 
TCOON,ioos:station:TCOON:005:1,2011-09-07T17:00:00Z,27.6346,-97.2370,0.0,4.2,76.0,4.8,'11111222,11111222,11111222' 
TCOON,ioos:station:TCOON:005:1,2011-09-07T18:00:00Z,27.6346,-97.2370,0.0,3.8,82.0,5.8,'11111222,11111222,11111222' 
TCOON,ioos:station:TCOON:005:1,2011-09-07T19:00:00Z,27.6346,-97.2370,0.0,4.0,82.0,6.6,'11111222,11111222,11111222' 
TCOON,ioos:station:TCOON:005:1,2011-09-07T20:00:00Z,27.6346,-97.2370,0.0,4.7,105.0,6.7,'11111222,11111222,11111222' 
TCOON,ioos:station:TCOON:005:1,2011-09-07T21:00:00Z,27.6346,-97.2370,0.0,4.9,114.0,6.8,'11111222,11111222,11111222' 
TCOON,ioos:station:TCOON:005:1,2011-09-07T22:00:00Z,27.6346,-97.2370,0.0,7.5,105.0,8.6,'11111222,11111222,11111222' 
TCOON,ioos:station:TCOON:005:1,2011-09-07T23:00:00Z,27.6346,-97.2370,0.0,7.0,109.0,8.1,'11111222,11111222,11111222' 
TCOON,ioos:station:TCOON:005:1,2011-09-08T00:00:00Z,27.6346,-97.2370,0.0,7.2,117.0,8.1,'11111222,11111222,11111222' 
TCOON,ioos:station:TCOON:005:1,2011-09-08T01:00:00Z,27.6346,-97.2370,0.0,6.3,108.0,8.1,'11111222,11111222,11111222' 
TCOON,ioos:station:TCOON:005:1,2011-09-08T02:00:00Z,27.6346,-97.2370,0.0,7.7,110.0,8.7,'11111222,11111222,11111222' 
TCOON,ioos:station:TCOON:005:1,2011-09-08T03:00:00Z,27.6346,-97.2370,0.0,6.2,115.0,8.6,'11111222,11111222,11111222' 
TCOON,ioos:station:TCOON:005:1,2011-09-08T04:00:00Z,27.6346,-97.2370,0.0,5.9,112.0,7.9,'11111222,11111222,11111222' 
TCOON,ioos:station:TCOON:005:1,2011-09-08T05:00:00Z,27.6346,-97.2370,0.0,5.0,109.0,6.4,'11111222,11111222,11111222' 
TCOON,ioos:station:TCOON:005:1,2011-09-08T06:00:00Z,27.6346,-97.2370,0.0,2.7,119.0,4.4,'11111222,11111222,11111222' 
TCOON,ioos:station:TCOON:005:1,2011-09-08T07:00:00Z,27.6346,-97.2370,0.0,2.5,126.0,3.4,'11111222,11111222,11111222' 
TCOON,ioos:station:TCOON:005:1,2011-09-08T08:00:00Z,27.6346,-97.2370,0.0,1.2,117.0,1.5,'11111222,11111222,11111222' 
TCOON,ioos:station:TCOON:005:1,2011-09-08T09:00:00Z,27.6346,-97.2370,0.0,1.8,303.0,2.3,'11111222,11111222,11111222' 
TCOON,ioos:station:TCOON:005:1,2011-09-08T10:00:00Z,27.6346,-97.2370,0.0,2.1,300.0,2.7,'11111222,11111222,11111222' 
TCOON,ioos:station:TCOON:005:1,2011-09-08T11:00:00Z,27.6346,-97.2370,0.0,2.9,310.0,3.3,'11111222,11111222,11111222' 
TCOON,ioos:station:TCOON:005:1,2011-09-08T12:00:00Z,27.6346,-97.2370,0.0,4.2,358.0,5.0,'11111222,11111222,11111222' 
TCOON,ioos:station:TCOON:005:1,2011-09-08T13:00:00Z,27.6346,-97.2370,0.0,5.0,345.0,5.7,'11111222,11111222,11111222' 
TCOON,ioos:station:TCOON:005:1,2011-09-08T14:00:00Z,27.6346,-97.2370,0.0,6.5,345.0,7.4,'11111222,11111222,11111222' 
TCOON,ioos:station:TCOON:005:1,2011-09-08T15:00:00Z,27.6346,-97.2370,0.0,6.0,352.0,6.9,'11111222,11111222,11111222' 
TCOON,ioos:station:TCOON:005:1,2011-09-08T16:00:00Z,27.6346,-97.2370,0.0,5.8,349.0,6.8,'11111222,11111222,11111222' 
TCOON,ioos:station:TCOON:005:1,2011-09-08T17:00:00Z,27.6346,-97.2370,0.0,5.3,348.0,6.4,'11111222,11111222,11111222' 
TCOON,ioos:station:TCOON:005:1,2011-09-08T18:00:00Z,27.6346,-97.2370,0.0,2.5,343.0,3.8,'11111222,11111222,11111222' 
TCOON,ioos:station:TCOON:005:1,2011-09-08T19:00:00Z,27.6346,-97.2370,0.0,4.1,57.0,4.5,'11111222,11111222,11111222' 
TCOON,ioos:station:TCOON:005:1,2011-09-08T20:00:00Z,27.6346,-97.2370,0.0,5.4,124.0,6.5,'11111222,11111222,11111222' 
TCOON,ioos:station:TCOON:005:1,2011-09-08T21:00:00Z,27.6346,-97.2370,0.0,7.2,119.0,8.7,'11111222,11111222,11111222' 
TCOON,ioos:station:TCOON:005:1,2011-09-08T22:00:00Z,27.6346,-97.2370,0.0,6.7,127.0,9.3,'11111222,11111222,11111222' 
TCOON,ioos:station:TCOON:005:1,2011-09-08T23:00:00Z,27.6346,-97.2370,0.0,6.4,138.0,7.8,'11111222,11111222,11111222' 
TCOON,ioos:station:TCOON:005:1,2011-09-09T00:00:00Z,27.6346,-97.2370,0.0,4.5,154.0,7.8,'11111222,11111222,11111222' 
TCOON,ioos:station:TCOON:005:1,2011-09-09T01:00:00Z,27.6346,-97.2370,0.0,3.7,158.0,4.5,'11111222,11111222,11111222' 
TCOON,ioos:station:TCOON:005:1,2011-09-09T02:00:00Z,27.6346,-97.2370,0.0,4.1,159.0,5.8,'11111222,11111222,11111222' 
TCOON,ioos:station:TCOON:005:1,2011-09-09T03:00:00Z,27.6346,-97.2370,0.0,4.0,161.0,4.9,'11111222,11111222,11111222' 
TCOON,ioos:station:TCOON:005:1,2011-09-09T04:00:00Z,27.6346,-97.2370,0.0,4.4,151.0,5.6,'11111222,11111222,11111222' 
TCOON,ioos:station:TCOON:005:1,2011-09-09T05:00:00Z,27.6346,-97.2370,0.0,3.2,159.0,4.3,'11111222,11111222,11111222' 
TCOON,ioos:station:TCOON:005:1,2011-09-09T06:00:00Z,27.6346,-97.2370,0.0,1.7,165.0,2.4,'11111222,11111222,11111222' 
TCOON,ioos:station:TCOON:005:1,2011-09-09T07:00:00Z,27.6346,-97.2370,0.0,1.4,168.0,1.9,'11111222,11111222,11111222' 
TCOON,ioos:station:TCOON:005:1,2011-09-09T08:00:00Z,27.6346,-97.2370,0.0,2.3,294.0,3.1,'11111222,11111222,11111222' 
TCOON,ioos:station:TCOON:005:1,2011-09-09T09:00:00Z,27.6346,-97.2370,0.0,3.0,305.0,3.6,'11111222,11111222,11111222' 
TCOON,ioos:station:TCOON:005:1,2011-09-09T10:00:00Z,27.6346,-97.2370,0.0,3.1,308.0,3.3,'11111222,11111222,11111222' 
TCOON,ioos:station:TCOON:005:1,2011-09-09T11:00:00Z,27.6346,-97.2370,0.0,2.2,295.0,3.4,'11111222,11111222,11111222' 